Location: Nitra
(0.0000°N, 18.0833°E)
Time: 05:53:23
(UTC+01:00)

CSL-04 Debris - Pass Details

Date: 24 January 2021
Orbit: 827 x 847 km, 98.9° (Epoch: 04 March)

Event Time Altitude Azimuth Distance (km) Brightness Sun altitude
Rises 19:04:11 0° 159° (SSE) 3,382 7.3 -15.2°
Reaches altitude 10° 19:06:35 10° 154° (SSE) 2,443 6.5 -15.7°
Maximum altitude 19:11:52 55° 77° (ENE) 991 4.2 -17.0°
Drops below altitude 10° 19:17:06 10° 0° (N) 2,423 6.4 -18.2°
Sets 19:19:29 0° 356° (N) 3,352 7.2 -18.8°
